Tracking 29892 objects as of 21-Nov-2024
HD Live streaming from Space Station
objects crossing your sky now

CZ-6A DEB

Track CZ-6A DEB now!
10-day predictions


NORAD ID: 54617
Int'l Code: 2022-151NT
Perigee: 822.9 km
Apogee: 863.4 km
Inclination: 98.8 °
Period: 101.6 minutes
Semi major axis: 7214 km
RCS: Unknown
Launch date: November 11, 2022
Source: People's Republic of China (PRC)
Launch site: Taiyaun Space Center, China (TSC)

Note: This is SATELLITE DEBRIS
Your satellite tracking list
Your tracking list is empty




NASA's NSSDC Master Catalog

Two Line Element Set (TLE):
1 54617U 22151NT  24324.58844603  .00002963  00000-0  14942-2 0  9999
2 54617  98.8354 331.8991 0028056 153.0569 207.2069 14.16862975103139
Source of the keplerian elements: AFSPC